TimeBST,TemperatureF,Dew PointF,Humidity,Sea Level PressureIn,VisibilityMPH,Wind Direction,Wind SpeedMPH,Gust SpeedMPH,PrecipitationIn,Events,Conditions,WindDirDegrees,DateUTC
12:20 AM,53.6,50.0,88,29.92,4.3,WSW,13.8,-,N/A,Rain,Light Rain,250,2013-05-12 23:20:00
12:50 AM,52,51,93,29.91,6,East,3.5,,,Rain,Light Drizzle,100,2013-05-12 23:50:00
12:50 AM,51.8,50.0,94,29.92,4.3,WSW,12.7,-,N/A,Rain,Light Rain,240,2013-05-12 23:50:00
1:20 AM,51.8,50.0,94,29.89,6.2,WSW,12.7,-,N/A,,Scattered Clouds,240,2013-05-13 00:20:00
1:50 AM,51.8,50.0,94,29.89,6.2,WSW,12.7,-,N/A,,Mostly Cloudy,250,2013-05-13 00:50:00
2:20 AM,53.6,50.0,88,29.89,6.2,WSW,11.5,-,N/A,,Overcast,250,2013-05-13 01:20:00
2:50 AM,53.6,50.0,88,29.89,6.2,WSW,12.7,-,N/A,,Scattered Clouds,240,2013-05-13 01:50:00
3:20 AM,51.8,50.0,94,29.89,6.2,WSW,11.5,-,N/A,,Mostly Cloudy,240,2013-05-13 02:20:00
3:50 AM,52,50,90,29.89,4,East,3.5,,,Rain,Light Drizzle,100,2013-05-13 02:50:00
3:50 AM,51.8,50.0,94,29.89,4.3,SW,11.5,-,N/A,,Drizzle,230,2013-05-13 02:50:00
4:20 AM,51.8,50.0,94,29.89,6.2,WSW,11.5,-,N/A,,Mostly Cloudy,240,2013-05-13 03:20:00
4:50 AM,51.8,50.0,94,29.89,6.2,WSW,12.7,-,N/A,,Partly Cloudy,250,2013-05-13 03:50:00
5:20 AM,51.8,48.2,88,29.89,6.2,WSW,11.5,-,N/A,,Partly Cloudy,250,2013-05-13 04:20:00
5:50 AM,51.8,48.2,88,29.89,6.2,WSW,12.7,-,N/A,,Partly Cloudy,250,2013-05-13 04:50:00
6:20 AM,51.8,46.4,82,29.89,6.2,WSW,15.0,-,N/A,,Partly Cloudy,250,2013-05-13 05:20:00
6:50 AM,51,46,79,29.90,14,East,3.5,,,,,100,2013-05-13 05:50:00
6:50 AM,51.8,46.4,82,29.89,6.2,WSW,15.0,-,N/A,,Partly Cloudy,250,2013-05-13 05:50:00
7:20 AM,51.8,46.4,82,29.89,6.2,West,17.3,-,N/A,,Partly Cloudy,260,2013-05-13 06:20:00
7:50 AM,51.8,44.6,76,29.92,6.2,West,19.6,-,N/A,,Partly Cloudy,260,2013-05-13 06:50:00
8:20 AM,53.6,41.0,62,29.92,6.2,West,18.4,-,N/A,,Partly Cloudy,260,2013-05-13 07:20:00
8:50 AM,53.6,39.2,58,29.92,6.2,West,20.7,-,N/A,,Scattered Clouds,270,2013-05-13 07:50:00
9:20 AM,53.6,39.2,58,29.92,6.2,West,20.7,-,N/A,,Scattered Clouds,270,2013-05-13 08:20:00
9:50 AM,54,36,39,29.92,25,East,3.5,,,,Scattered Clouds,100,2013-05-13 08:50:00
9:50 AM,53.6,35.6,51,29.92,6.2,West,20.7,-,N/A,,Partly Cloudy,280,2013-05-13 08:50:00
10:20 AM,53.6,33.8,47,29.92,6.2,West,20.7,-,N/A,,Partly Cloudy,280,2013-05-13 09:20:00
10:50 AM,55.4,33.8,44,29.92,6.2,West,17.3,-,N/A,,Scattered Clouds,280,2013-05-13 09:50:00
11:20 AM,55.4,35.6,47,29.92,6.2,West,19.6,-,N/A,,Scattered Clouds,270,2013-05-13 10:20:00
11:50 AM,53.6,37.4,54,29.92,6.2,WSW,20.7,-,N/A,,Scattered Clouds,250,2013-05-13 10:50:00
12:20 PM,55.4,35.6,47,29.89,6.2,West,20.7,-,N/A,,Scattered Clouds,270,2013-05-13 11:20:00
12:50 PM,55,37,38,29.90,19,East,3.5,,,,Mostly Cloudy,100,2013-05-13 11:50:00
12:50 PM,55.4,37.4,51,29.89,6.2,West,21.9,-,N/A,,Scattered Clouds,270,2013-05-13 11:50:00
1:20 PM,55.4,37.4,51,29.89,6.2,West,21.9,-,N/A,,Scattered Clouds,260,2013-05-13 12:20:00
1:50 PM,57.2,37.4,48,29.89,6.2,WSW,19.6,-,N/A,,Scattered Clouds,240,2013-05-13 12:50:00
2:20 PM,53.6,39.2,58,29.86,6.2,West,24.2,-,N/A,Rain,Light Rain Showers,270,2013-05-13 13:20:00
2:50 PM,59.0,35.6,42,29.86,6.2,West,21.9,33.4,N/A,,Partly Cloudy,260,2013-05-13 13:50:00
3:20 PM,59.0,33.8,39,29.86,6.2,WSW,24.2,-,N/A,,Partly Cloudy,250,2013-05-13 14:20:00
3:50 PM,58,38,35,29.86,19,Calm,Calm,,,,Partly Cloudy,,2013-05-13 14:50:00
3:50 PM,59.0,33.8,39,29.86,-9999.0,West,18.4,-,N/A,,Clear,270,2013-05-13 14:50:00
4:20 PM,57.2,35.6,44,29.83,6.2,WSW,18.4,-,N/A,,Partly Cloudy,250,2013-05-13 15:20:00
4:50 PM,55.4,39.2,54,29.83,6.2,West,21.9,-,N/A,Rain,Light Rain Showers,260,2013-05-13 15:50:00
5:20 PM,51.8,41.0,67,29.86,6.2,West,21.9,-,N/A,,Scattered Clouds,260,2013-05-13 16:20:00
5:50 PM,53.6,39.2,58,29.83,6.2,WSW,23.0,-,N/A,,Partly Cloudy,250,2013-05-13 16:50:00
6:20 PM,55.4,37.4,51,29.83,6.2,West,27.6,-,N/A,,Partly Cloudy,260,2013-05-13 17:20:00
6:50 PM,55,36,37,29.82,22,Calm,Calm,,,,Scattered Clouds,,2013-05-13 17:50:00
6:50 PM,55.4,35.6,47,29.83,6.2,West,20.7,-,N/A,,Partly Cloudy,270,2013-05-13 17:50:00
7:20 PM,53.6,35.6,51,29.80,6.2,West,23.0,-,N/A,,Partly Cloudy,260,2013-05-13 18:20:00
7:50 PM,53.6,35.6,51,29.83,6.2,West,23.0,-,N/A,,Partly Cloudy,270,2013-05-13 18:50:00
8:20 PM,48.2,39.2,71,29.83,6.2,West,19.6,-,N/A,,Partly Cloudy,270,2013-05-13 19:20:00
8:50 PM,48.2,37.4,66,29.83,6.2,WSW,13.8,-,N/A,,Partly Cloudy,250,2013-05-13 19:50:00
9:20 PM,50.0,39.2,66,29.83,6.2,WSW,11.5,-,N/A,,Partly Cloudy,250,2013-05-13 20:20:00
9:50 PM,49,38,57,29.85,18,Calm,Calm,,,,Scattered Clouds,,2013-05-13 20:50:00
9:50 PM,50.0,39.2,66,29.86,6.2,West,15.0,-,N/A,,Scattered Clouds,260,2013-05-13 20:50:00
10:20 PM,48.2,37.4,66,29.86,6.2,West,15.0,-,N/A,,Partly Cloudy,270,2013-05-13 21:20:00
10:50 PM,48.2,37.4,66,29.83,-9999.0,WSW,13.8,-,N/A,,Clear,240,2013-05-13 21:50:00
11:20 PM,48.2,37.4,66,29.83,-9999.0,WSW,13.8,-,N/A,,Clear,250,2013-05-13 22:20:00
11:50 PM,48.2,39.2,71,29.83,-9999.0,WSW,13.8,-,N/A,,Clear,250,2013-05-13 22:50:00